Tracking 20942 objects as of 13-Jul-2020
HD Live streaming from Space Station
objects crossing your sky now

DMSP 5D-2 F11 DEB

Track DMSP 5D-2 F11 DEB now!
10-day predictions


NORAD ID: 29089
Int'l Code: 1991-082CJ
Perigee: 591.4 km
Apogee: 600.4 km
Inclination: 98.6 °
Period: 96.5 minutes
Semi major axis: 6966 km
RCS: 0.0065 m2 (small)
Launch date: November 28, 1991
Source: United States (US)
Launch site: AIR FORCE WESTERN TEST RANGE (AFWTR)

Note: This is SATELLITE DEBRIS
aabbcc
Your satellite tracking list
Your tracking list is empty




NASA's NSSDC Master Catalog

Two Line Element Set (TLE):
1 29089U 91082CJ  20195.00347207  .00006091  00000-0  59272-3 0  9992
2 29089  98.5971  29.4937 0006453 182.8337 336.4432 14.92945487849125
Source of the keplerian elements: AFSPC